This demonstration page uses our WeatherBlox Daily Observations layout. Learn more.

Left ArrowRight Arrow

39.01783, -85.05884

Hourly Observations for January 5, 2020

Temp ( °F °C ) Dew Point ( °F °C ) Humidity (%) Winds ( mph kmh ) Pressure ( in mb ) Visibility ( mi km ) Precip ( " mm )
12:52 am 00:52 Cloudy 34 1.1 26 -3.3 73 73 W 15 24 30.15 1021 10 16 0.00 0.00
1:52 am 01:52 Cloudy 34 1.1 26 -3.3 73 73 WNW 10 17 30.17 1022 10 16 0.00 0.00
2:52 am 02:52 Cloudy 33 0.6 27 -2.8 78 78 WNW 12 19 30.18 1022 10 16 0.00 0.00
3:52 am 03:52 Cloudy 33 0.6 24 -4.4 70 70 W 18 30 30.20 1023 10 16 0.00 0.00
4:52 am 04:52 Cloudy 32 0 24 -4.4 73 73 W 7 11 30.19 1022 10 16 0.00 0.00
5:52 am 05:52 Mostly Cloudy 30 -1.1 24 -4.4 79 79 WNW 6 9 30.22 1023 10 16 0.00 0.00
6:52 am 06:52 Mostly Cloudy 30 -1.1 24 -4.4 79 79 WSW 6 9 30.23 1024 10 16 0.00 0.00
7:40 am 07:40 Partly Cloudy 29 -1.7 23 -5 78 78 WSW 7 11 30.28 1025 10 16 0.00 0.00
7:52 am 07:52 Partly Cloudy 29 -1.7 23 -5 78 78 SW 6 9 30.24 1024 10 16 0.00 0.00
8:52 am 08:52 Partly Cloudy 30 -1.1 25 -3.9 82 82 SW 6 9 30.26 1025 9 14 0.00 0.00
9:52 am 09:52 Mostly Sunny 32 0 25 -3.9 75 75 SW 10 17 30.28 1025 9 14 0.00 0.00
10:52 am 10:52 Mostly Sunny 35 1.7 27 -2.8 72 72 SSW 13 20 30.23 1024 10 16 0.00 0.00
11:52 am 11:52 Partly Cloudy 38 3.3 28 -2.2 68 68 SSW 12 19 30.19 1022 10 16 0.00 0.00
12:52 pm 12:52 Sunny 41 5 29 -1.7 62 62 S 14 22 30.12 1020 10 16 0.00 0.00
1:52 pm 13:52 Sunny 44 6.7 29 -1.7 55 55 SSW 14 22 30.06 1018 10 16 0.00 0.00
2:52 pm 14:52 Mostly Sunny 45 7.2 28 -2.2 52 52 S 18 30 30.01 1016 10 16 0.00 0.00
3:52 pm 15:52 Mostly Sunny 46 7.8 27 -2.8 47 47 SSW 14 22 29.99 1016 10 16 0.00 0.00
4:52 pm 16:52 Sunny 45 7.2 28 -2.2 52 52 SSW 17 28 29.98 1015 10 16 0.00 0.00
5:52 pm 17:52 Clear 44 6.7 28 -2.2 53 53 SW 12 19 29.98 1015 10 16 0.00 0.00
6:52 pm 18:52 Clear 43 6.1 29 -1.7 58 58 SW 8 13 30.01 1016 10 16 0.00 0.00
7:52 pm 19:52 Clear 42 5.6 28 -2.2 58 58 SW 10 17 30.01 1016 10 16 0.00 0.00
8:52 pm 20:52 Mostly Clear 43 6.1 29 -1.7 58 58 WSW 13 20 30.03 1017 10 16 0.00 0.00
9:52 pm 21:52 Cloudy 43 6.1 30 -1.1 60 60 WSW 7 11 30.03 1017 10 16 0.00 0.00
10:52 pm 22:52 Mostly Clear 41 5 29 -1.7 62 62 WSW 7 11 30.04 1017 10 16 0.00 0.00
11:52 pm 23:52 Partly Cloudy 41 5 30 -1.1 65 65 W 18 30 30.03 1017 10 16 0.00 0.00

Powered by AerisWeather